Regional Weather Roundup
Issued by NWS

Home | Current Version | Previous Version | Graphics & Text | Print | Product List | Glossary Off
Versions: 1 2 3 4 5 6 7 8 9 10 11 12 13 14 15 16 17 18 19 20 21 22 23 24 25 26 27 28 29 30 31 32 33 34 35 36 37 38 39 40 41 42 43 44 45 46 47 48 49 50

000
ASUS43 KDTX 281601
RWRMI
MICHIGAN HOURLY REGIONAL WEATHER ROUNDUP
NATIONAL WEATHER SERVICE DETROIT/PONTIAC MI
1200 PM EDT THU AUG 28 2014

NOTE: "FAIR" INDICATES FEW OR NO CLOUDS BELOW 12,000 FEET WITH NO
SIGNIFICANT WEATHER AND/OR OBSTRUCTION TO VISIBILITY.

MIZ047>049-052>055-059>063-066>070-074>076-081>083-281700-
SOUTHEAST LOWER MICHIGAN

CITY           SKY/WX    TMP DP  RH WIND       PRES   REMARKS
ADRIAN         PTSUNNY   70  56  61 E7        30.17F
ALMA           SUNNY     65  44  47 NE5       30.19F
ANN ARBOR      SUNNY     70  50  49 NE5       30.17S
BAD AXE        MOSUNNY   65  51  62 CALM      30.18F
CARO           PTSUNNY   65  52  64 N5        30.18F
DETROIT CITY   SUNNY     70  47  43 N8        30.18S
DETROIT        MOSUNNY   69  55  60 VRB6      30.17S
FLINT          SUNNY     69  50  50 N7        30.19S
GROSSE ILE     SUNNY     68  55  64 E9        30.15F
HILLSDALE      CLOUDY    69  59  70 NE6       30.17S
HOWELL         SUNNY     64  48  57 N5        30.18F

CITY           SKY/WX    TMP DP  RH WIND       PRES   REMARKS
JACKSON        PTSUNNY   69  55  60 VRB6      30.17F
LAMBERTVILLE   CLOUDY    70  55  60 E5        30.17S
LANSING        LGT RAIN  65  48  54 NE6       30.19S
LAPEER         CLOUDY    64  51  62 E5        30.19S
MASON          SUNNY     64  52  64 NE3       30.18S
MONROE         MOSUNNY   68  55  64 CALM      30.15F
MT. CLEMENS    MOSUNNY   66  49  53 VRB1      30.16S
PONTIAC        MOSUNNY   66  47  50 N8        30.18S
PORT HOPE        N/A     64  55  72 VRB6      30.17F
PORT HURON     PTSUNNY   66  54  63 NE5       30.17F
TRI CITIES     SUNNY     66  48  52 E8        30.20S
TROY           SUNNY     67  47  47 N6        30.19S
SAGINAW HB     PTSUNNY   64  52  63 NE5       30.18F
$$
MIZ043>046-050>051-056>058-064>065-071>073-077>080-281700-
SOUTHWEST LOWER MICHIGAN

CITY           SKY/WX    TMP DP  RH WIND       PRES   REMARKS
BATTLE CREEK   PTSUNNY   69  57  65 NE9       30.17F
BENTON HARBOR  SUNNY     71  59  65 VRB7      30.14S
BIG RAPIDS     SUNNY     65  50  58 E6        30.19S
COLDWATER      CLOUDY    69  61  76 E6        30.16S
FREMONT        FAIR      68  46  45 E9        30.18F
HOLLAND        SUNNY     70  56  61 E13       30.17S
GRAND RAPIDS   MOSUNNY   67  53  61 E10       30.18F
IONIA          FAIR      66  50  57 E3        30.18F
KALAMAZOO      CLOUDY    67  59  75 VRB3      30.17S
LUDINGTON      MOSUNNY   69  55  59 E5        30.17S
MARSHALL       PTSUNNY   66  57  72 CALM      30.16F
MOUNT PLEASANT SUNNY     66  47  49 N3        30.18F
MUSKEGON       MOSUNNY   70  51  51 E9        30.17S
SOUTH HAVEN    PTSUNNY   70  61  73 E7        30.15S
$$
MIZ016>042-281700-
NORTHERN LOWER MICHIGAN

CITY           SKY/WX    TMP DP  RH WIND       PRES   REMARKS
ALPENA         SUNNY     66  50  56 MISG      30.18S
BEAVER ISLAND  CLOUDY    66  49  55 S5        30.20S
BELLAIRE       MOSUNNY   65  46  50 CALM      30.19S
CADILLAC       SUNNY     64  48  56 N5        30.19S
CHARLEVOIX     PTSUNNY   64  52  66 N7        30.22S
FRANKFORT      CLOUDY    67  48  49 E5        30.18S
GAYLORD        SUNNY     63  46  54 NE6       30.19S
GRAYLING       SUNNY     66  47  51 N5        30.20S
HARBOR SPRINGS MOSUNNY   64  50  61 SW6       30.19S
HOUGHTON LAKE  SUNNY     66  46  48 CALM      30.20S
MANISTEE       CLOUDY    66  48  52 E8        30.18F
OSCODA         SUNNY     66  48  52 N7        30.17F
PELLSTON       MOSUNNY   66  47  50 CALM      30.19S
TRAVERSE CITY  MOSUNNY   66  47  50 NE5       30.18S
$$
MIZ007>008-015-281700-
EASTERN UPPER MICHIGAN

CITY           SKY/WX    TMP DP  RH WIND       PRES   REMARKS
KINROSS        SUNNY     63  48  59 N5        30.18F
MACKINAC ISLAN SUNNY     60  52  74 W5        30.19S
NEWBERRY       SUNNY     62  46  56 CALM      30.19S
S. S. MARIE    MOSUNNY   65  48  54 VRB5      30.17F
$$
MIZ004>006-011>014-085-281700-
CENTRAL UPPER MICHIGAN

CITY           SKY/WX    TMP DP  RH WIND       PRES   REMARKS
MANISTIQUE     CLOUDY    63  48  59 S7        30.19F
ESCANABA       CLOUDY    64  50  59 SE10      30.18S
MENOMINEE      CLOUDY    64  55  72 SW7       30.17R
SAWYER-GWINN   PTSUNNY   63  50  63 SW9       30.18S
$$
MIZ001>003-009>011-084-281700-
WESTERN UPPER MICHIGAN

CITY           SKY/WX    TMP DP  RH WIND       PRES   REMARKS
IRON MOUNTAIN  MOSUNNY   67  49  52 VRB5      30.16S
HOUGHTON       MOSUNNY   63  50  62 SE7       30.16S
COPPER HARBOR    N/A     66  49  54 SW8       30.15S
$$

ABBREVIATIONS USED IN REMARKS
   TC - TEMPERATURE IN CELSIUS
  WCI - WIND CHILL INDEX
   HX - HEAT INDEX
  VSB - VISIBILITY



USA.gov is the U.S. government's official web portal to all federal, state and local government web resources and services.